Regional Weather Roundup
Issued by NWS Sioux Falls, SD

Home | Current Version | Previous Version | Graphics & Text | Print | Product List | Glossary On
Versions: 1 2 3 4 5 6 7 8 9 10 11 12 13 14 15 16 17 18 19 20 21 22 23 24 25 26 27 28 29 30 31 32 33 34 35 36 37 38 39 40 41 42 43 44 45 46 47 48 49 50
000
ASUS43 KFSD 290802
RWRFSD

WEATHER ROUNDUP FOR SE SOUTH DAKOTA/SW MINNESOTA/NW IOWA
NATIONAL WEATHER SERVICE SIOUX FALLS SD
300 AM CDT FRI AUG 29 2014

NOTE: "FAIR" INDICATES FEW OR NO CLOUDS BELOW 12,000 FEET WITH NO
SIGNIFICANT WEATHER AND OR OBSTRUCTIONS TO VISIBILITY.


SDZ038>040-050-052>070-290900-
SOUTHEAST SOUTH DAKOTA

CITY           SKY/WX    TMP DP  RH WIND       PRES   REMARKS
CHAMBERLAIN    CLOUDY    66  66  99 CALM      29.81F
HURON          CLOUDY    69  68  96 CALM      29.77F FOG
MADISON        CLOUDY    68  68 100 CALM      29.79F FOG
MITCHELL       CLOUDY    71  70  96 CALM      29.77F FOG
SIOUX FALLS    CLOUDY    72  70  93 SW8       29.77F
WINNER         CLOUDY    65  64  97 SW6       29.83F
YANKTON        CLOUDY    68  66  94 W6        29.78S
$$

MNZ071-072-080-081-089-090-097-098-290900-
SOUTHWEST MINNESOTA

CITY           SKY/WX    TMP DP  RH WIND       PRES   REMARKS
FAIRMONT       CLOUDY    68  66  94 S15G21    29.82F
JACKSON        CLOUDY    72  68  88 S10       29.83F
LUVERNE        LGT RAIN  72  70  94 SE10G16   29.78F
MARSHALL       CLOUDY    66  64  94 SE6       29.79F VSB 1/2
MONTEVIDEO     FOG       64  64 100 SE3       29.80F VSB 3/4
PIPESTONE      CLOUDY    72  70  94 S13       29.79F FOG
REDWOOD FALLS  FOG       67  67 100 SE9       29.79F VSB 1/4
TRACY          CLOUDY    69  68  98 S7        29.79F FOG
WINDOM         CLOUDY    72  70  94 S9        29.82F FOG
WORTHINGTON    CLOUDY    72  72 100 S10       29.83F
$$

IAZ001>003-012>014-020>022-031-032-NEZ013-014-SDZ071-290900-
NORTHWEST IOWA

CITY           SKY/WX    TMP DP  RH WIND       PRES   REMARKS
DENISON        CLOUDY    70  68  94 SE14G22   29.80F
ESTHERVILLE    CLOUDY    69  67  93 S16G24    29.83F
LE MARS        CLOUDY    72  72 100 SE6       29.79F
ORANGE CITY    CLOUDY    73  70  88 S7        29.80F FOG
SHELDON        CLOUDY    72  72 100 SE8       29.80F FOG
SIOUX CITY     NOT AVBL
SPENCER        CLOUDY    70  67  90 S8        29.83F
STORM LAKE     MOCLDY    66  66 100 SE8G14    29.84S
$$

ABBREVIATIONS USED IN REMARKS
   TC - TEMPERATURE IN CELSIUS
  WCI - WIND CHILL INDEX
   HX - HEAT INDEX
  VSB - VISIBILITY



USA.gov is the U.S. government's official web portal to all federal, state and local government web resources and services.